Location: Madrid
(40.4000°N, 3.6830°W)
Time: 22:52:47
(UTC+02:00)

ISS - Pass Details

Date: 21 July 2017
Orbit: 400 x 408 km, 51.6° (Epoch: 24 July)

Event Time Altitude Azimuth Distance (km) Brightness Sun altitude
Exits shadow 02:01:52 14° 15° (NNE) 1,226 -0.7 -29.0°
Drops below altitude 10° 02:02:44 10° 28° (NNE) 1,454 -0.4 -29.0°
Sets 02:05:13 0° 47° (NE) 2,316 0.5 -29.0°
